Hourly Data Report for November 14, 2019

All times are specified in Local Standard Time (LST). Add 1 hour to adjust for Daylight Saving Time where and when it is observed.

PINAWA
MANITOBA
Current Station Operator: ECCC - MSC

50°10'38.020" N
96°03'53.000" W
268.00 m
503B1ER
71448
WEA

Download Data

Hourly Data (November 2019)
Hourly Data Report for November 14, 2019
TIME Temp Definition
°C
Dew Point Definition
°C
Rel Hum Definition
%
Wind Dir Definition
10's deg

Wind Spd Definition
km/h
Visibility Definition
km
Stn Press Definition
kPa
Hmdx Definition


Wind Chill Definition


Weather Definition


00:00 -9.1 LegendMM LegendMM 26 7   98.68   -13 LegendNANA
01:00 -9.3 LegendMM LegendMM 26 6   98.67   -13 LegendNANA
02:00 -9.7 LegendMM LegendMM 24 6   98.64   -13 LegendNANA
03:00 -10.8 LegendMM LegendMM 23 7   98.60   -15 LegendNANA
04:00 -12.2 LegendMM LegendMM 21 5   98.54   -15 LegendNANA
05:00 -13.0 LegendMM LegendMM 19 6   98.46   -17 LegendNANA
06:00 -12.5 LegendMM LegendMM 20 7   98.34   -17 LegendNANA
07:00 -12.1 LegendMM LegendMM 18 8   98.22   -17 LegendNANA
08:00 -11.1 LegendMM LegendMM 19 6   98.11   -15 LegendNANA
09:00 -9.2 LegendMM LegendMM 23 6   98.08   -13 LegendNANA
10:00 -7.1 LegendMM LegendMM 25 9   98.13   -11 LegendNANA
11:00 -5.6 LegendMM LegendMM 27 13   98.18   -11 LegendNANA
12:00 -3.8 LegendMM LegendMM 32 24   98.26   -11 LegendNANA
13:00 -4.5 LegendMM LegendMM 33 18   98.33   -11 LegendNANA
14:00 -4.6 LegendMM LegendMM 32 26   98.42   -12 LegendNANA
15:00 -4.4 LegendMM LegendMM 33 15   98.48   -10 LegendNANA
16:00 -4.7 LegendMM LegendMM 33 17   98.59   -11 LegendNANA
17:00 -5.9 LegendMM LegendMM 34 9   98.66   -10 LegendNANA
18:00 -7.0 LegendMM LegendMM 33 6   98.71   -10 LegendNANA
19:00 -7.3 LegendMM LegendMM 32 7   98.77   -11 LegendNANA
20:00 -7.9 LegendMM LegendMM 28 5   98.87   -11 LegendNANA
21:00 -8.6 LegendMM LegendMM 28 4   98.92   -11 LegendNANA
22:00 -11.2 LegendMM LegendMM 26 2   98.96   -12 LegendNANA
23:00 -10.3 LegendMM LegendMM 9 1   98.98   -11 LegendNANA

Notes on Data Quality.

Legend

  • E = Estimated
  • M = Missing
  • NA = Not Available
Date modified: